DMSP 5D-2 F13 DEB, 40416

Orbit data source: Space-Track

DMSP 5D-2 F13 DEB, 40416 is space debris in SSO originally from a launch on Fri, 24 Mar 1995 UTC launched from the Air Force Western Test Range (AFWTR). Debris objects in space refer to the collection of defunct objects orbiting the Earth. Examples of debris include non-operational satellites, rocket bodies, and fragments generated from explosions, collisions, or faulty payload assembly.

Loading next visibility...
DMSP 5D-2 F13 DEB details
Identifier
40416, 1995-015AD
Orbit
SSO
Last TLE update1 day ago
Origin
Flag of USUSAF SMC (US)
ManufacturerUnknown
MissionSpacecraft
Bus & MotorUnknown
MassUnknown
Launch date (UTC)
1995-03-24 (30 years ago)
Launch vehicleUnknown
Launch site
Air Force Western Test Range (AFWTR)
Object type
Payload
Rocket body
Debris
Shape & HBRUnknown
Radar Cross SectionSmall (<0.1 m²)

Expand to show TLE details & history

TLE from 1 day ago
0 DMSP 5D-2 F13 DEB
1 40416U 95015AD  24360.32895144  .00005933  00000-0  25557-2 0  9992
2 40416  98.7770  14.9954 0004682 216.4495 143.6366 14.24920677508912
Epoch: 2024-12-25T07:53Z
Definitive object data (Epoch: 2024-12-25T07:53:41.404Z)
Latitude
Longitude162.24862°
Altitude814.389 km
Speed7.445 km/s
True Right ascension00h 59m 58s
True Declination0° 00' 00"
Sunlit
Object was in daylight at TLE epoch
Visualization TLE readout
Latitude-44.74545°
Longitude-25.41029°
Altitude822.642 km
Speed7.442 km/s
Apparent Right ascension16h 49m 19s
Apparent Declination-67° 44' 51"
Sunlit
Object is in daylight
Visualization observer readout
Local Sidereal Time09:34:46
Azimuth150.421° SSE
Elevation-43.369°
Doppler factor1
Orbital elements
Apogee altitude809.278 km
Perigee altitude802.551 km
Semi-major axis7,184.052 km
Eccentricity0.0004682
Inclination98.777°
RAAN14.9954°
Arg. of periapsis216.4495°
True anomaly143.6684°
Mean anomaly143.6366°
Eccentric anomaly143.6525°
Mean motion3.56442 °/min
BSTAR0.0025557
Orbital period101 mins
Loading maneuver chart data...

DMSP 5D-2 F13 DEB Visibility forecast

Observer location: undefined°, undefined

Span
Click to sort rows by Start time (UTC) header in descending order
Start Az.
Max El. time (UTC)
Max El. Az.
Max El.
End time (UTC)
End Az.
7 mins2024-12-26 13:08:37.693Z44.402° NE2024-12-26 13:12:37.693Z99.591° ESE22.69°2024-12-26 13:15:37.693Z141.373° SSE
8 mins2024-12-26 14:48:37.693Z351.798° N2024-12-26 14:52:37.693Z281.364° WNW32.108°2024-12-26 14:56:37.693Z225.845° WSW
7 mins2024-12-27 00:29:37.693Z122.222° SE2024-12-27 00:32:37.693Z64.567° ENE31.618°2024-12-27 00:36:37.693Z5.907° NNE
7 mins2024-12-27 02:09:37.693Z222.76° SW2024-12-27 02:12:37.693Z269.709° W23.482°2024-12-27 02:16:37.693Z319.983° NNW
|